Regional Weather Roundup
Issued by NWS Cleveland, OH

Home | Current Version | Previous Version | Graphics & Text | Print | Product List | Glossary On
Versions: 1 2 3 4 5 6 7 8 9 10 11 12 13 14 15 16 17 18 19 20 21 22 23 24 25 26 27 28 29 30 31 32 33 34 35 36 37 38 39 40 41 42 43 44 45 46 47 48 49 50
000
ASUS41 KCLE 212100
RWRCLE
OHIO REGIONAL WEATHER ROUNDUP
NATIONAL WEATHER SERVICE WILMINGTON, OH
400 PM EST SUN JAN 21 2018

NOTE: "FAIR" INDICATES FEW OR NO CLOUDS BELOW 12,000 FEET WITH NO
SIGNIFICANT WEATHER AND/OR OBSTRUCTIONS TO VISIBILITY.

OHZ001>008-015>018-024>027-034-035-043-044-212200-
   NORTHWEST OHIO

CITY           SKY/WX    TMP DP  RH WIND       PRES   REMARKS
DEFIANCE       FOG       42  41  96 CALM      29.98S VSB 1/4
FINDLAY        CLOUDY    46  42  86 S7        29.99R FOG
TOLEDO EXPRESS FOG       43  43 100 S3        29.99R VSB 1/4
TOLEDO EXEC    FOG       43  42  97 SW3       30.01R VSB 1/4
LIMA           CLOUDY    47  46  97 S9        29.99R
$$

OHZ009>014-019>023-028>033-038-089-212200-
   NORTHEAST OHIO

CITY           SKY/WX    TMP DP  RH WIND       PRES   REMARKS
CLE-HOPKINS    CLOUDY    47  42  83 S6        30.04S
CLE-LAKEFRONT  CLOUDY    47  41  80 S7        30.01S
CUY CO. ARPT   CLOUDY    46  32  57 S10       30.03R FOG
LORAIN-ELYRIA  CLOUDY    44  38  79 SW8       30.01S
ASHTABULA      CLOUDY    41  41 100 S5        30.04R FOG
AKRON-CANTON   CLOUDY    45  39  79 SW9       30.04R
WOOSTER        NOT AVBL
MANSFIELD      CLOUDY    46  44  93 SW12      30.02R
YOUNGSTOWN     CLOUDY    45  41  86 S5        30.03S FOG
$$

OHZ042-051>053-060>062-070>072-077>081-212200-
  SOUTHWEST OHIO

CITY           SKY/WX    TMP DP  RH WIND       PRES   REMARKS
CINC-COVINGTON CLOUDY    55  50  83 S12       30.03F
CINC-LUNKEN    CLOUDY    55  49  80 S8        30.05S
HAMILTON       CLOUDY    56  48  74 S5        30.04S
DAYTON         NOT AVBL
WRIGHT-PAT AFB CLOUDY    53  44  71 S7        30.02S
DAYTON GENERAL CLOUDY    54  47  77 SW12      30.02S
WILMINGTON     CLOUDY    51  48  89 S10       30.04R
$$

OHZ036-037-039>041-045>050-054>059-063>069-073>076-082>088-212200-
  CENTRAL AND SOUTHEAST OHIO

CITY           SKY/WX    TMP DP  RH WIND       PRES   REMARKS
COLUMBUS       CLOUDY    50  46  86 SW7       30.05R
OSU AIRPORT    CLOUDY    49  46  90 S9        30.04R
BOLTON FIELD   CLOUDY    48  45  87 S6        30.04S
RICKENBACK AFB NOT AVBL
NEWARK         CLOUDY    45  41  86 CALM      30.04S
MARION         CLOUDY    45  40  82 S9        30.03R
LANCASTER      CLOUDY    51  44  77 S7        30.06R
ZANESVILLE     CLOUDY    51  42  71 S6        30.06R
NEW PHILLY     CLOUDY    47  40  76 SE5       30.06R
$$




USA.gov is the U.S. government's official web portal to all federal, state and local government web resources and services.